FW6720 Weather Reports


time (UTC)temp
C
wind
direction
speed
KPH
gust
KPH
rain 1hr
cm
rain 24hr
cm
rain mn
cm
humidity
%
barometer
mb
20260503212723 31 41 0.0 0.0 0.00 0.00 0.00 30 1012.0
20260503212220 31 41 0.0 0.0 0.00 0.00 0.00 25 1012.3
20260503211718 31 41 3.2 3.2 0.00 0.00 0.00 25 1012.3
20260503211213 31 42 0.0 0.0 0.00 0.00 0.00 26 1012.1
20260503210709 31 40 0.0 0.0 0.00 0.00 0.00 28 1012.2
20260503210207 31 41 1.6 3.2 0.00 0.00 0.00 27 1012.4
20260503205702 31 40 0.0 0.0 0.00 0.00 0.00 26 1012.4
20260503205158 30 41 0.0 0.0 0.00 0.00 0.00 25 1012.4
20260503204655 31 41 0.0 0.0 0.00 0.00 0.00 27 1012.6
20260503204153 31 41 0.0 0.0 0.00 0.00 0.00 26 1012.7
20260503203649 30 41 0.0 0.0 0.00 0.00 0.00 30 1012.8
20260503203147 30 41 0.0 0.0 0.00 0.00 0.00 30 1012.8
20260503202644 30 42 0.0 0.0 0.00 0.00 0.00 27 1012.7
20260503202142 30 41 0.0 0.0 0.00 0.00 0.00 30 1012.9
20260503201640 30 42 0.0 0.0 0.00 0.00 0.00 26 1012.9
20260503201137 30 42 1.6 3.2 0.00 0.00 0.00 26 1013.0
20260503200633 30 41 0.0 0.0 0.00 0.00 0.00 24 1012.9
20260503200130 30 40 0.0 0.0 0.00 0.00 0.00 28 1013.0
20260503195627 30 40 0.0 0.0 0.00 0.00 0.00 26 1013.2
20260503195124 30 40 0.0 0.0 0.00 0.00 0.00 28 1013.2
20260503194621 30 39 4.8 8.0 0.00 0.00 0.00 26 1013.3
20260503194116 30 40 0.0 0.0 0.00 0.00 0.00 30 1013.2
20260503193613 30 40 1.6 1.6 0.00 0.00 0.00 30 1013.4
20260503193108 30 40 0.0 0.0 0.00 0.00 0.00 30 1013.5
20260503192604 30 39 0.0 0.0 0.00 0.00 0.00 28 1013.4
20260503192100 30 39 0.0 0.0 0.00 0.00 0.00 32 1013.6
20260503191557 30 40 0.0 0.0 0.00 0.00 0.00 28 1013.6
20260503191054 29 40 0.0 0.0 0.00 0.00 0.00 32 1013.4
20260503190551 30 39 0.0 0.0 0.00 0.00 0.00 32 1013.5
20260503190048 29 40 0.0 0.0 0.00 0.00 0.00 30 1013.4
20260503185544 29 40 1.6 1.6 0.00 0.00 0.00 30 1013.6
20260503185044 29 39 0.0 0.0 0.00 0.00 0.00 32 1013.8
20260503184540 30 39 0.0 0.0 0.00 0.00 0.00 32 1014.0
20260503184038 30 39 0.0 0.0 0.00 0.00 0.00 36 1013.9
20260503183534 30 39 0.0 0.0 0.00 0.00 0.00 32 1013.8
20260503183031 28 39 0.0 0.0 0.00 0.00 0.00 34 1013.8
20260503182530 28 39 0.0 0.0 0.00 0.00 0.00 40 1014.0
20260503182027 28 39 0.0 0.0 0.00 0.00 0.00 40 1013.7
20260503181524 28 39 0.0 0.0 0.00 0.00 0.00 45 1014.1
20260503181020 27 39 0.0 0.0 0.00 0.00 0.00 44 1014.0
20260503180518 27 39 0.0 0.0 0.00 0.00 0.00 40 1013.9
20260503180015 27 39 0.0 0.0 0.00 0.00 0.00 46 1014.0
20260503175512 27 39 0.0 0.0 0.00 0.00 0.00 45 1013.8
20260503175009 26 39 0.0 0.0 0.00 0.00 0.00 46 1013.9
20260503174506 26 39 0.0 0.0 0.00 0.00 0.00 51 1014.2
20260503174002 26 39 0.0 0.0 0.00 0.00 0.00 50 1014.1
20260503173457 25 38 0.0 0.0 0.00 0.00 0.00 51 1014.1
20260503172954 25 39 0.0 0.0 0.00 0.00 0.00 56 1014.0
20260503172452 25 38 0.0 0.0 0.00 0.00 0.00 53 1014.1
20260503171948 24 38 0.0 0.0 0.00 0.00 0.00 55 1014.2
20260503171445 23 38 0.0 0.0 0.00 0.00 0.00 56 1014.2
20260503170943 23 38 0.0 0.0 0.00 0.00 0.00 54 1014.3
20260503170438 23 38 0.0 0.0 0.00 0.00 0.00 60 1014.4
20260503150831 10 33 0.0 0.0 0.00 0.00 0.00 99 1014.9
20260503150327 10 33 0.0 0.0 0.00 0.00 0.00 98 1015.0
20260503140251 8 33 0.0 0.0 0.00 0.00 0.00 98 1014.7
20260503131221 8 33 0.0 0.0 0.00 0.00 0.00 98 1014.7
20260503130719 8 33 0.0 0.0 0.00 0.00 0.00 98 1014.9
20260503130216 8 33 0.0 0.0 0.00 0.00 0.00 98 1014.5
20260503120141 9 34 0.0 0.0 0.00 0.00 0.00 98 1015.0
20260503110609 9 34 0.0 0.0 0.00 0.00 0.00 98 1014.8
20260503110106 9 34 0.0 0.0 0.00 0.00 0.00 98 1015.2
20260503090450 10 35 0.0 0.0 0.00 0.00 0.00 96 1015.2
20260503081416 11 35 0.0 0.0 0.00 0.00 0.00 95 1015.1
20260503080913 11 35 0.0 0.0 0.00 0.00 0.00 94 1015.4
20260503080410 11 35 0.0 0.0 0.00 0.00 0.00 94 1015.3
20260503072846 11 35 0.0 0.0 0.00 0.00 0.00 93 1015.5
20260503072343 11 35 0.0 0.0 0.00 0.00 0.00 93 1015.6
20260503071840 11 35 0.0 0.0 0.00 0.00 0.00 93 1015.5
20260503071337 11 35 0.0 0.0 0.00 0.00 0.00 93 1015.5
20260503070833 11 35 0.0 0.0 0.00 0.00 0.00 92 1015.4
20260503070332 11 35 0.0 0.0 0.00 0.00 0.00 91 1015.2
20260503060250 12 35 0.0 0.0 0.00 0.00 0.00 87 1015.5
20260503054737 13 35 0.0 0.0 0.00 0.00 0.00 87 1015.8
20260503054234 13 35 0.0 0.0 0.00 0.00 0.00 86 1015.7
20260503053732 13 35 0.0 0.0 0.00 0.00 0.00 87 1015.8
20260503053231 13 35 0.0 0.0 0.00 0.00 0.00 87 1015.5
20260503052726 13 35 0.0 0.0 0.00 0.00 0.00 87 1015.6
20260503052223 13 35 0.0 0.0 0.00 0.00 0.00 86 1015.7
20260503051718 13 35 0.0 0.0 0.00 0.00 0.00 86 1015.8
20260503051217 13 35 0.0 0.0 0.00 0.00 0.00 86 1015.7
20260503050713 13 35 0.0 0.0 0.00 0.00 0.00 86 1015.6
20260503050209 13 35 0.0 0.0 0.00 0.00 0.00 86 1015.7
20260503045707 13 35 0.0 0.0 0.00 0.00 0.00 86 1015.7
20260503045204 13 35 0.0 0.0 0.00 0.00 0.00 86 1015.6
20260503044700 14 35 0.0 0.0 0.00 0.00 0.00 86 1015.6
20260503044158 14 35 0.0 0.0 0.00 0.00 0.00 85 1015.5
20260503043654 14 35 0.0 0.0 0.00 0.00 0.00 85 1015.6
20260503043152 14 35 0.0 0.0 0.00 0.00 0.00 85 1015.6
20260503042648 14 35 0.0 0.0 0.00 0.00 0.00 85 1015.4
20260503042144 15 35 0.0 0.0 0.00 0.00 0.00 85 1015.6
20260503041641 15 35 0.0 0.0 0.00 0.00 0.00 84 1015.4
20260503041138 15 35 0.0 0.0 0.00 0.00 0.00 84 1015.4
20260503040636 15 35 0.0 0.0 0.00 0.00 0.00 84 1015.5
20260503040133 15 35 0.0 0.0 0.00 0.00 0.00 83 1015.1
20260503035629 15 35 0.0 0.0 0.00 0.00 0.00 83 1015.2
20260503035128 15 35 0.0 0.0 0.00 0.00 0.00 83 1015.1
20260503034625 15 35 0.0 0.0 0.00 0.00 0.00 82 1015.0
20260503034122 16 35 0.0 0.0 0.00 0.00 0.00 81 1014.9
20260503033619 16 35 0.0 0.0 0.00 0.00 0.00 81 1014.8
20260503033116 16 35 0.0 0.0 0.00 0.00 0.00 80 1014.8
20260503032614 16 35 0.0 0.0 0.00 0.00 0.00 79 1014.7
20260503032113 16 34 0.0 0.0 0.00 0.00 0.00 79 1014.9
20260503031610 16 34 0.0 0.0 0.00 0.00 0.00 79 1014.8
20260503031108 17 34 0.0 0.0 0.00 0.00 0.00 79 1014.6
20260503030603 17 34 0.0 0.0 0.00 0.00 0.00 79 1014.5
20260503030100 17 34 0.0 0.0 0.00 0.00 0.00 78 1014.5
20260503025557 17 34 0.0 0.0 0.00 0.00 0.00 77 1014.2
20260503025055 17 34 0.0 0.0 0.00 0.00 0.00 77 1014.3
20260503024550 18 34 0.0 0.0 0.00 0.00 0.00 76 1014.1
20260503024048 18 34 0.0 0.0 0.00 0.00 0.00 76 1013.9
20260503023544 18 34 0.0 0.0 0.00 0.00 0.00 75 1013.6
20260503023042 18 34 0.0 0.0 0.00 0.00 0.00 74 1013.7
20260503022538 19 34 0.0 0.0 0.00 0.00 0.00 73 1013.6
20260503022033 19 34 0.0 0.0 0.00 0.00 0.00 72 1013.7
20260503021530 20 34 0.0 0.0 0.00 0.00 0.00 71 1013.6
20260503021027 20 34 0.0 0.0 0.00 0.00 0.00 71 1013.7
20260503020524 20 34 0.0 0.0 0.00 0.00 0.00 68 1013.7
20260503020021 20 34 0.0 0.0 0.00 0.00 0.00 68 1013.8
20260503015517 20 34 0.0 0.0 0.00 0.00 0.00 64 1013.6
20260503015015 20 34 0.0 0.0 0.00 0.00 0.00 66 1013.8
20260503014511 20 34 0.0 0.0 0.00 0.00 0.00 63 1013.8
20260503014009 20 34 0.0 0.0 0.00 0.00 0.00 64 1013.8
20260503013506 21 34 0.0 0.0 0.00 0.00 0.00 64 1013.9
20260503013003 21 34 0.0 0.0 0.00 0.00 0.00 56 1013.6
20260503012501 21 8 0.0 0.0 0.00 0.00 0.00 61 1013.8
20260503011956 21 8 0.0 0.0 0.00 0.00 0.00 59 1013.8
20260503011454 21 8 0.0 0.0 0.00 0.00 0.00 59 1013.5
20260503010950 21 8 0.0 0.0 0.00 0.00 0.00 59 1013.9
20260503010447 22 8 0.0 0.0 0.00 0.00 0.00 58 1013.8
20260503005944 22 8 0.0 0.0 0.00 0.00 0.00 58 1013.7
20260503005442 22 8 0.0 0.0 0.00 0.00 0.00 57 1013.8
20260503004938 22 8 0.0 0.0 0.00 0.00 0.00 55 1013.7
20260503004435 22 8 0.0 0.0 0.00 0.00 0.00 54 1014.1
20260503003933 22 8 0.0 0.0 0.00 0.00 0.00 55 1013.8
20260503003429 22 301 1.6 3.2 0.00 0.00 0.00 50 1013.9
20260503002927 22 56 0.0 0.0 0.00 0.00 0.00 51 1014.0
20260503002424 22 57 0.0 0.0 0.00 0.00 0.00 52 1013.8
20260503001920 22 7 0.0 0.0 0.00 0.00 0.00 49 1013.9
20260503001416 22 8 0.0 1.6 0.00 0.00 0.00 49 1014.0
20260503000914 22 8 0.0 0.0 0.00 0.00 0.00 54 1013.9
20260503000411 22 8 0.0 0.0 0.00 0.00 0.00 55 1013.8
20260502235908 22 9 0.0 0.0 0.00 0.00 0.00 58 1014.2
20260502235405 21 10 0.0 0.0 0.00 0.00 0.00 55 1014.1
20260502234903 21 10 0.0 0.0 0.00 0.00 0.00 55 1014.1
20260502234359 22 9 0.0 0.0 0.00 0.00 0.00 54 1013.9
20260502233856 22 8 0.0 0.0 0.00 0.00 0.00 54 1014.2
20260502233351 22 9 0.0 0.0 0.00 0.00 0.00 53 1014.2
20260502232849 22 9 0.0 0.0 0.00 0.00 0.00 53 1014.4
20260502232345 22 8 0.0 0.0 0.00 0.00 0.00 54 1014.3
20260502231842 22 8 0.0 0.0 0.00 0.00 0.00 50 1014.4
20260502231340 22 9 0.0 0.0 0.00 0.00 0.00 45 1014.3
20260502230838 23 11 0.0 0.0 0.00 0.00 0.00 44 1014.4
20260502230336 23 12 0.0 0.0 0.00 0.00 0.00 49 1014.4
20260502225832 23 13 0.0 0.0 0.00 0.00 0.00 50 1014.4
20260502225329 23 12 0.0 0.0 0.00 0.00 0.00 49 1014.6
20260502224825 22 12 0.0 0.0 0.00 0.00 0.00 47 1014.7
20260502224322 22 27 0.0 0.0 0.00 0.00 0.00 48 1014.6
20260502223819 22 27 0.0 0.0 0.00 0.00 0.00 48 1014.9
20260502223317 22 27 0.0 1.6 0.00 0.00 0.00 48 1014.9
20260502222814 22 27 1.6 1.6 0.00 0.00 0.00 50 1015.0
20260502222306 22 28 0.0 1.6 0.00 0.00 0.00 51 1015.0
20260502221802 22 27 0.0 0.0 0.00 0.00 0.00 49 1015.3
20260502221258 22 27 0.0 0.0 0.00 0.00 0.00 51 1015.4
20260502220755 23 28 0.0 0.0 0.00 0.00 0.00 51 1015.4
20260502220251 22 29 0.0 0.0 0.00 0.00 0.00 53 1015.6
20260502215748 22 29 0.0 0.0 0.00 0.00 0.00 53 1015.5
20260502215245 22 29 0.0 0.0 0.00 0.00 0.00 53 1015.5
20260502214742 22 28 0.0 0.0 0.00 0.00 0.00 56 1015.6
20260502214239 21 28 0.0 0.0 0.00 0.00 0.00 55 1015.6
20260502213736 22 28 0.0 0.0 0.00 0.00 0.00 55 1015.6
20260502213233 21 29 0.0 0.0 0.00 0.00 0.00 58 1015.5